When you browse on this site, cookies collect data to enhance your experience and personalize the content and advertising you see.
Visit our Privacy Policy to learn more. By continuing to use the site, you agree to this use of cookies and data.
  • In Österreich
  • Länderverzeichnis
  • Für 7 Tage
  • Wassertemperatur
  • Wetterkarte
  • News
  • Widgets
  • user-avatar
    Anmelden

    Stündliche Wetter Hrasdan

    Heute, 27 Mai, Mittwoch

    Zeit Temperatur Niederschläge Wind Luftdruck Luftfeuchtigkeit
    00:00 +10°C° 0 mm 2 m/S 616 mmHg 82%
    01:00 +9°C° 0 mm 2 m/S 616 mmHg 82%
    02:00 +10°C° 0 mm 1 m/S 615 mmHg 82%
    03:00 +10°C° 0 mm 1 m/S 615 mmHg 83%
    04:00 +10°C° 0 mm 1 m/S 616 mmHg 82%
    05:00 +11°C° 0 mm 1 m/S 616 mmHg 82%
    06:00 +12°C° 0 mm 1 m/S 617 mmHg 81%
    07:00 +14°C° 0 mm 1 m/S 618 mmHg 74%
    08:00 +16°C° 0 mm 2 m/S 618 mmHg 68%
    09:00 +18°C° 0 mm 2 m/S 619 mmHg 62%
    10:00 +18°C° 0 mm 2 m/S 619 mmHg 60%
    11:00 +19°C° 0 mm 2 m/S 619 mmHg 57%
    12:00 +20°C° 0 mm 2 m/S 619 mmHg 55%
    13:00 +20°C° 0.1 mm 2 m/S 619 mmHg 55%
    14:00 +20°C° 0.1 mm 2 m/S 618 mmHg 55%
    15:00 +20°C° 0.1 mm 2 m/S 618 mmHg 55%
    16:00 +20°C° 0.1 mm 2 m/S 618 mmHg 61%
    17:00 +20°C° 0.1 mm 1 m/S 617 mmHg 67%
    18:00 +19°C° 0.1 mm 1 m/S 617 mmHg 73%
    19:00 +16°C° 0 mm 1 m/S 617 mmHg 76%
    20:00 +15°C° 0 mm 1 m/S 616 mmHg 79%
    21:00 +13°C° 0 mm 2 m/S 616 mmHg 82%
    22:00 +13°C° 0 mm 2 m/S 615 mmHg 78%
    23:00 +12°C° 0 mm 2 m/S 615 mmHg 74%

    Morgen, 28 Mai, Donnerstag

    Zeit Temperatur Niederschläge Wind Luftdruck Luftfeuchtigkeit
    00:00 +12°C° 0 mm 2 m/S 615 mmHg 70%
    01:00 +12°C° 0 mm 1 m/S 615 mmHg 69%
    02:00 +12°C° 0 mm 1 m/S 615 mmHg 69%
    03:00 +12°C° 0 mm 1 m/S 615 mmHg 68%
    04:00 +12°C° 0 mm 1 m/S 615 mmHg 67%
    05:00 +13°C° 0 mm 1 m/S 615 mmHg 67%
    06:00 +14°C° 0 mm 1 m/S 616 mmHg 66%
    07:00 +16°C° 0 mm 1 m/S 616 mmHg 60%
    08:00 +19°C° 0 mm 1 m/S 617 mmHg 54%
    09:00 +22°C° 0 mm 1 m/S 617 mmHg 48%
    10:00 +22°C° 0 mm 1 m/S 617 mmHg 47%
    11:00 +23°C° 0 mm 1 m/S 617 mmHg 45%
    12:00 +24°C° 0 mm 2 m/S 617 mmHg 44%
    13:00 +24°C° 0.1 mm 2 m/S 617 mmHg 43%
    14:00 +24°C° 0.1 mm 2 m/S 616 mmHg 43%
    15:00 +24°C° 0.1 mm 2 m/S 616 mmHg 42%
    16:00 +23°C° 0.1 mm 2 m/S 616 mmHg 48%
    17:00 +22°C° 0.1 mm 1 m/S 615 mmHg 54%
    18:00 +22°C° 0.1 mm 1 m/S 615 mmHg 59%
    19:00 +20°C° 0.1 mm 1 m/S 615 mmHg 63%
    20:00 +18°C° 0.1 mm 1 m/S 614 mmHg 67%
    21:00 +15°C° 0.1 mm 2 m/S 614 mmHg 70%
    22:00 +14°C° 0 mm 2 m/S 614 mmHg 69%
    23:00 +14°C° 0 mm 2 m/S 613 mmHg 68%

    übermorgen, 29 Mai, Freitag

    Zeit Temperatur Niederschläge Wind Luftdruck Luftfeuchtigkeit
    00:00 +14°C° 0 mm 2 m/S 613 mmHg 66%
    01:00 +14°C° 0.1 mm 1 m/S 613 mmHg 67%
    02:00 +14°C° 0.1 mm 1 m/S 613 mmHg 67%
    03:00 +14°C° 0.1 mm 1 m/S 612 mmHg 67%
    04:00 +14°C° 0 mm 1 m/S 612 mmHg 67%
    05:00 +15°C° 0 mm 1 m/S 612 mmHg 66%
    06:00 +15°C° 0 mm 1 m/S 612 mmHg 66%
    07:00 +18°C° 0 mm 1 m/S 613 mmHg 60%
    08:00 +20°C° 0 mm 1 m/S 613 mmHg 54%
    09:00 +21°C° 0 mm 2 m/S 614 mmHg 48%
    10:00 +22°C° 0.1 mm 3 m/S 614 mmHg 46%
    11:00 +23°C° 0.1 mm 4 m/S 614 mmHg 44%
    12:00 +25°C° 0.1 mm 5 m/S 613 mmHg 42%
    13:00 +25°C° 0.2 mm 5 m/S 613 mmHg 43%
    14:00 +24°C° 0.2 mm 6 m/S 612 mmHg 45%
    15:00 +24°C° 0.2 mm 6 m/S 612 mmHg 46%
    16:00 +22°C° 0.1 mm 5 m/S 611 mmHg 52%
    17:00 +21°C° 0.1 mm 3 m/S 611 mmHg 58%
    18:00 +20°C° 0.1 mm 2 m/S 611 mmHg 65%
    19:00 +18°C° 0.1 mm 2 m/S 611 mmHg 64%
    20:00 +16°C° 0.1 mm 2 m/S 610 mmHg 63%
    21:00 +14°C° 0.1 mm 1 m/S 610 mmHg 63%
    22:00 +13°C° 0 mm 2 m/S 610 mmHg 59%
    23:00 +12°C° 0 mm 2 m/S 610 mmHg 55%

    30 Mai, Samstag

    Zeit Temperatur Niederschläge Wind Luftdruck Luftfeuchtigkeit
    00:00 +12°C° 0 mm 2 m/S 610 mmHg 52%
    01:00 +10°C° 0 mm 2 m/S 610 mmHg 53%
    02:00 +9°C° 0 mm 2 m/S 610 mmHg 54%
    03:00 +9°C° 0 mm 2 m/S 609 mmHg 56%
    04:00 +9°C° 0 mm 2 m/S 610 mmHg 56%
    05:00 +10°C° 0 mm 2 m/S 610 mmHg 57%
    06:00 +10°C° 0 mm 2 m/S 611 mmHg 57%
    07:00 +13°C° 0 mm 2 m/S 611 mmHg 51%
    08:00 +14°C° 0 mm 2 m/S 612 mmHg 44%
    09:00 +16°C° 0 mm 2 m/S 613 mmHg 37%
    10:00 +17°C° 0 mm 3 m/S 613 mmHg 36%
    11:00 +18°C° 0 mm 3 m/S 613 mmHg 34%
    12:00 +19°C° 0 mm 3 m/S 613 mmHg 33%
    13:00 +19°C° 0 mm 3 m/S 613 mmHg 34%
    14:00 +19°C° 0 mm 3 m/S 613 mmHg 34%
    15:00 +19°C° 0 mm 3 m/S 613 mmHg 35%
    16:00 +19°C° 0 mm 2 m/S 613 mmHg 41%
    17:00 +18°C° 0 mm 2 m/S 613 mmHg 48%
    18:00 +18°C° 0 mm 1 m/S 613 mmHg 54%
    19:00 +15°C° 0 mm 1 m/S 612 mmHg 56%
    20:00 +13°C° 0 mm 1 m/S 612 mmHg 57%
    21:00 +11°C° 0 mm 1 m/S 612 mmHg 58%
    22:00 +11°C° 0 mm 1 m/S 612 mmHg 61%
    23:00 +10°C° 0 mm 1 m/S 612 mmHg 63%

    31 Mai, Sonntag

    Zeit Temperatur Niederschläge Wind Luftdruck Luftfeuchtigkeit
    00:00 +10°C° 0 mm 1 m/S 612 mmHg 66%
    01:00 +10°C° 0 mm 1 m/S 612 mmHg 64%
    02:00 +9°C° 0 mm 1 m/S 612 mmHg 62%
    03:00 +9°C° 0 mm 1 m/S 612 mmHg 60%
    04:00 +10°C° 0 mm 1 m/S 612 mmHg 61%
    05:00 +11°C° 0 mm 1 m/S 613 mmHg 62%
    06:00 +12°C° 0 mm 1 m/S 614 mmHg 64%
    07:00 +13°C° 0 mm 1 m/S 614 mmHg 57%
    08:00 +15°C° 0 mm 1 m/S 615 mmHg 51%
    09:00 +17°C° 0 mm 2 m/S 615 mmHg 44%
    10:00 +17°C° 0 mm 2 m/S 616 mmHg 43%
    11:00 +18°C° 0 mm 2 m/S 616 mmHg 42%
    12:00 +19°C° 0 mm 3 m/S 616 mmHg 40%
    13:00 +19°C° 0.1 mm 3 m/S 616 mmHg 40%
    14:00 +19°C° 0.1 mm 2 m/S 615 mmHg 40%
    15:00 +19°C° 0.1 mm 2 m/S 615 mmHg 40%
    16:00 +18°C° 0 mm 2 m/S 615 mmHg 47%
    17:00 +18°C° 0 mm 2 m/S 614 mmHg 54%
    18:00 +18°C° 0 mm 1 m/S 614 mmHg 61%
    19:00 +15°C° 0 mm 2 m/S 614 mmHg 68%
    20:00 +13°C° 0 mm 2 m/S 613 mmHg 76%
    21:00 +10°C° 0 mm 2 m/S 613 mmHg 83%
    22:00 +10°C° 0 mm 2 m/S 613 mmHg 81%
    23:00 +9°C° 0 mm 2 m/S 613 mmHg 79%

    1 Juni, Montag

    Zeit Temperatur Niederschläge Wind Luftdruck Luftfeuchtigkeit
    00:00 +9°C° 0 mm 2 m/S 613 mmHg 77%
    01:00 +9°C° 0 mm 2 m/S 612 mmHg 76%
    02:00 +9°C° 0 mm 2 m/S 612 mmHg 74%
    03:00 +8°C° 0 mm 2 m/S 612 mmHg 73%
    04:00 +9°C° 0 mm 2 m/S 612 mmHg 73%
    05:00 +10°C° 0 mm 2 m/S 613 mmHg 74%
    06:00 +12°C° 0 mm 1 m/S 613 mmHg 74%
    07:00 +14°C° 0 mm 2 m/S 614 mmHg 67%
    08:00 +16°C° 0 mm 2 m/S 614 mmHg 60%
    09:00 +18°C° 0 mm 2 m/S 615 mmHg 52%
    10:00 +19°C° 0 mm 3 m/S 615 mmHg 50%
    11:00 +19°C° 0 mm 3 m/S 615 mmHg 48%
    12:00 +20°C° 0 mm 4 m/S 615 mmHg 46%
    13:00 +21°C° 0 mm 4 m/S 614 mmHg 45%
    14:00 +21°C° 0 mm 5 m/S 614 mmHg 44%
    15:00 +21°C° 0 mm 5 m/S 614 mmHg 43%
    16:00 +20°C° 0.1 mm 4 m/S 613 mmHg 48%
    17:00 +20°C° 0.1 mm 3 m/S 613 mmHg 53%
    18:00 +19°C° 0.1 mm 3 m/S 613 mmHg 58%
    19:00 +17°C° 0 mm 3 m/S 612 mmHg 56%
    20:00 +15°C° 0 mm 2 m/S 612 mmHg 53%
    21:00 +13°C° 0 mm 2 m/S 611 mmHg 51%
    22:00 +13°C° 0 mm 2 m/S 611 mmHg 50%
    23:00 +12°C° 0 mm 2 m/S 611 mmHg 50%
    Mehr zeigen